Home > Weather > Wuppertal > Past weeks

Flag for Germany Weather for the Past 2 Weeks in Wuppertal, North Rhine-Westphalia, Germany

Now
59 °F

Sunny.


Feels Like: 57 °F
Forecast: 55 / 73 °F
Wind: 10 mph from Southeast

Location: Duesseldorf

Current Time: May 6, 2016 at 8:40:37 AM

Latest Report: May 6, 2016 at 8:20 AM


Visibility: 10 mi

Pressure: 30.01 "Hg

Humidity: 68%

Dew Point: 48 °F

Location of WuppertalLocation

Historic Weather in Wuppertal — Graph

°F

Wuppertal Temperature Yesterday

Maximum temperature yesterday: 68 °F (at 3:50 PM)
Minimum temperature yesterday: 37 °F (at 5:50 AM)
Average temperature yesterday: 55 °F

High & Low Weather Summary for the Past Weeks

 TemperatureHumidityPressure
High68 °F (Apr 21, 3:50 PM)100% (Apr 25, 7:50 PM)30.42 "Hg (Apr 25, 7:50 PM)
Low34 °F (Apr 25, 4:20 AM)31% (May 4, 6:20 PM)29.50 "Hg (Apr 26, 8:20 AM)
Average47 °F72%30.03 "Hg
* Reported Apr 21 7:20 AM — May 6 7:20 AM, Wuppertal, Weather by CustomWeather, © 2016

Note: Actual official high and low records may vary slightly from our data, if they occured in-between our weather recording intervals... More about our weather records

Advertising

Wuppertal Weather History for the Previous 24 Hours

Scroll right to see more
 ConditionsComfort  
Time TempWeatherWind HumidityBarometerVisibility
7:20 AM
Fri, May 6
52 °FSunny.3 mph77%30.01 "Hg10 mi
6:50 AM46 °FClear.3 mph93%30.01 "Hg10 mi
6:20 AM46 °FFog.3 mph87%30.01 "HgN/A
5:50 AM46 °FClear.5 mph87%30.01 "Hg10 mi
5:20 AM45 °FClear.5 mph93%30.04 "Hg10 mi
4:50 AM46 °FClear.2 mph87%30.04 "Hg10 mi
4:20 AM46 °FClear.2 mph93%30.04 "Hg10 mi
3:50 AM46 °FClear.2 mph93%30.04 "Hg10 mi
3:20 AM46 °FClear.2 mph93%30.07 "Hg10 mi
2:50 AM48 °FClear.2 mph87%30.07 "Hg10 mi
2:20 AM52 °FClear.3 mph77%30.07 "Hg10 mi
1:50 AM52 °FClear.3 mph77%30.07 "Hg10 mi
1:20 AM50 °FClear.5 mph76%30.07 "Hg10 mi
12:50 AM50 °FClear.6 mph82%30.07 "Hg10 mi
12:20 AM50 °FClear.7 mph82%30.07 "Hg10 mi
11:50 PM
Thu, May 5
50 °FClear.7 mph82%30.07 "Hg10 mi
11:20 PM54 °FClear.9 mph72%30.07 "Hg10 mi
10:50 PM52 °FClear.6 mph77%30.09 "Hg10 mi
10:20 PM54 °FClear.6 mph77%30.09 "Hg10 mi
9:50 PM57 °FPassing clouds.5 mph63%30.09 "HgN/A
9:20 PM59 °FSunny.5 mph59%30.09 "Hg10 mi
8:50 PM61 °FSunny.6 mph55%30.09 "Hg10 mi
8:20 PM64 °FSunny.7 mph49%30.09 "Hg10 mi
7:50 PM66 °FPassing clouds.8 mph43%30.09 "HgN/A
7:20 PM68 °FSunny.12 mph38%30.09 "Hg10 mi
6:50 PM68 °FSunny.10 mph40%30.09 "Hg10 mi
6:20 PM68 °FPassing clouds.10 mph40%30.12 "HgN/A
5:50 PM68 °FPassing clouds.10 mph38%30.12 "HgN/A
5:20 PM68 °FPassing clouds.9 mph38%30.12 "HgN/A
4:50 PM68 °FPassing clouds.10 mph40%30.15 "HgN/A
4:20 PM68 °FPassing clouds.8 mph40%30.15 "HgN/A
3:50 PM68 °FPassing clouds.12 mph38%30.18 "HgN/A
3:20 PM66 °FPassing clouds.12 mph43%30.18 "HgN/A
2:50 PM66 °FPassing clouds.9 mph40%30.18 "HgN/A
2:20 PM64 °FPassing clouds.12 mph43%30.21 "HgN/A
1:50 PM64 °FPassing clouds.13 mph46%30.21 "HgN/A
1:20 PM63 °FPassing clouds.12 mph42%30.24 "HgN/A
12:50 PM63 °FPassing clouds.10 mph45%30.24 "HgN/A
12:20 PM63 °FPassing clouds.13 mph39%30.27 "HgN/A
11:50 AM61 °FPassing clouds.10 mph39%30.27 "HgN/A
11:20 AM61 °FPassing clouds.12 mph39%30.27 "HgN/A
10:50 AM59 °FPassing clouds.15 mph36%30.27 "HgN/A
10:20 AM59 °FPassing clouds.12 mph39%30.30 "HgN/A
9:50 AM57 °FSunny.13 mph44%30.30 "Hg10 mi
9:20 AM55 °FPassing clouds.10 mph47%30.30 "HgN/A
8:50 AM54 °FPassing clouds.7 mph51%30.30 "HgN/A
8:20 AM54 °FPassing clouds.9 mph51%30.33 "HgN/A
Weather by CustomWeather, © 2016

See weather overviewHow to use our weather pages